Radiation Dose at Monitoring Post of Fukushima Daini Nuclear Power Station
Date,Time,MP-1(microSv/h),MP-2(microSv/h),MP-3(microSv/h),MP-4(microSv/h),MP-5(microSv/h),MP-6(microSv/h),MP-7(microSv/h),Wind Direction,Wind Velocity(m/s),Rain
2024/03/06,00:00,0.150,0.135,0.207,0.197,0.208,0.120,0.083,northwest,8.5,Yes
2024/03/06,00:10,0.151,0.135,0.207,0.197,0.208,0.121,0.083,northwest,9.2,Yes
2024/03/06,00:20,0.151,0.136,0.208,0.197,0.207,0.120,0.082,northwest,8.5,Yes
2024/03/06,00:30,0.150,0.135,0.209,0.197,0.207,0.120,0.082,northwest,9.0,Yes
2024/03/06,00:40,0.149,0.134,0.207,0.196,0.208,0.121,0.082,northwest,9.0,Yes
2024/03/06,00:50,0.151,0.135,0.206,0.195,0.208,0.120,0.083,northwest,8.7,Yes
2024/03/06,01:00,0.150,0.134,0.206,0.196,0.206,0.120,0.082,northwest,9.2,Yes
2024/03/06,01:10,0.149,0.134,0.206,0.196,0.207,0.120,0.081,northwest,9.8,Yes
2024/03/06,01:20,0.150,0.133,0.205,0.196,0.205,0.119,0.081,north-northwest,9.5,Yes
2024/03/06,01:30,0.149,0.133,0.205,0.195,0.207,0.119,0.080,northwest,9.5,Yes
2024/03/06,01:40,0.149,0.133,0.204,0.195,0.206,0.118,0.081,north-northwest,9.2,Yes
2024/03/06,01:50,0.150,0.134,0.205,0.194,0.206,0.119,0.080,northwest,10.3,Yes
2024/03/06,02:00,0.148,0.132,0.206,0.196,0.206,0.119,0.081,north-northwest,9.6,Yes
2024/03/06,02:10,0.150,0.133,0.206,0.195,0.207,0.120,0.081,north-northwest,9.2,Yes
2024/03/06,02:20,0.150,0.134,0.206,0.196,0.206,0.120,0.082,north-northwest,9.3,Yes
2024/03/06,02:30,0.150,0.134,0.207,0.196,0.207,0.121,0.081,northwest,10.0,Yes
2024/03/06,02:40,0.151,0.134,0.206,0.195,0.207,0.120,0.082,northwest,8.9,Yes
2024/03/06,02:50,0.150,0.135,0.207,0.196,0.208,0.121,0.082,northwest,10.6,Yes
2024/03/06,03:00,0.150,0.136,0.206,0.196,0.207,0.122,0.083,north-northwest,10.9,Yes
2024/03/06,03:10,0.152,0.137,0.207,0.196,0.209,0.124,0.086,northwest,9.5,Yes
2024/03/06,03:20,0.154,0.138,0.207,0.196,0.208,0.125,0.085,northwest,10.3,Yes
2024/03/06,03:30,0.154,0.138,0.207,0.196,0.208,0.126,0.088,north-northwest,11.8,Yes
2024/03/06,03:40,0.153,0.137,0.208,0.196,0.207,0.126,0.088,northwest,10.4,Yes
2024/03/06,03:50,0.152,0.138,0.207,0.195,0.208,0.126,0.088,northwest,10.6,Yes
2024/03/06,04:00,0.151,0.137,0.205,0.194,0.206,0.125,0.088,northwest,11.5,Yes
2024/03/06,04:10,0.152,0.138,0.205,0.193,0.204,0.124,0.087,northwest,10.1,Yes
2024/03/06,04:20,0.151,0.136,0.204,0.191,0.204,0.124,0.086,northwest,10.6,Yes
2024/03/06,04:30,0.150,0.136,0.203,0.191,0.204,0.122,0.086,northwest,10.7,Yes
2024/03/06,04:40,0.149,0.135,0.202,0.191,0.202,0.122,0.085,north-northwest,11.5,Yes
2024/03/06,04:50,0.148,0.134,0.201,0.188,0.202,0.120,0.084,northwest,10.9,Yes
2024/03/06,05:00,0.146,0.133,0.201,0.187,0.201,0.120,0.083,northwest,10.7,Yes
2024/03/06,05:10,0.146,0.132,0.200,0.188,0.200,0.118,0.082,northwest,10.6,Yes
2024/03/06,05:20,0.146,0.132,0.199,0.186,0.200,0.118,0.082,northwest,11.4,Yes
2024/03/06,05:30,0.146,0.132,0.199,0.186,0.199,0.118,0.080,northwest,11.7,Yes
2024/03/06,05:40,0.147,0.131,0.199,0.186,0.200,0.117,0.080,north-northwest,13.1,Yes
2024/03/06,05:50,0.146,0.131,0.199,0.186,0.199,0.117,0.082,northwest,11.1,Yes
2024/03/06,06:00,0.146,0.130,0.199,0.186,0.199,0.117,0.081,northwest,11.7,Yes
2024/03/06,06:10,0.145,0.130,0.198,0.185,0.199,0.116,0.079,north-northwest,12.3,Yes
2024/03/06,06:20,0.144,0.131,0.199,0.186,0.198,0.116,0.079,northwest,11.2,Yes
2024/03/06,06:30,0.144,0.130,0.199,0.186,0.198,0.116,0.079,northwest,10.9,Yes
2024/03/06,06:40,0.144,0.130,0.199,0.185,0.199,0.115,0.079,northwest,10.6,Yes
2024/03/06,06:50,0.144,0.130,0.199,0.186,0.199,0.116,0.078,northwest,11.4,Yes
2024/03/06,07:00,0.144,0.129,0.199,0.185,0.199,0.116,0.078,northwest,11.7,Yes
2024/03/06,07:10,0.143,0.129,0.199,0.186,0.199,0.116,0.078,northwest,12.0,Yes
2024/03/06,07:20,0.143,0.128,0.200,0.185,0.199,0.116,0.078,north-northwest,11.7,Yes
2024/03/06,07:30,0.143,0.129,0.200,0.186,0.199,0.115,0.078,northwest,11.7,Yes
2024/03/06,07:40,0.143,0.130,0.199,0.186,0.199,0.115,0.078,northwest,12.0,Yes
2024/03/06,07:50,0.144,0.128,0.199,0.187,0.199,0.116,0.077,northwest,10.6,Yes
2024/03/06,08:00,0.142,0.129,0.199,0.185,0.198,0.116,0.078,north-northwest,12.2,Yes
2024/03/06,08:10,0.142,0.128,0.199,0.186,0.199,0.114,0.078,northwest,11.7,Yes
2024/03/06,08:20,0.143,0.129,0.200,0.186,0.200,0.115,0.077,northwest,11.2,Yes
2024/03/06,08:30,0.143,0.128,0.199,0.188,0.200,0.114,0.076,northwest,11.5,Yes
2024/03/06,08:40,0.143,0.128,0.199,0.186,0.199,0.114,0.076,north-northwest,10.9,Yes
2024/03/06,08:50,0.143,0.127,0.200,0.187,0.200,0.114,0.076,north-northwest,10.7,Yes
2024/03/06,09:00,0.142,0.127,0.200,0.187,0.201,0.113,0.076,north-northwest,10.7,Yes
2024/03/06,09:10,0.143,0.128,0.200,0.187,0.199,0.113,0.075,northwest,11.2,Yes
2024/03/06,09:20,0.142,0.128,0.199,0.188,0.200,0.113,0.075,northwest,11.2,Yes
2024/03/06,09:30,0.141,0.127,0.200,0.186,0.201,0.113,0.075,northwest,11.4,No
2024/03/06,09:40,0.142,0.126,0.199,0.188,0.200,0.112,0.076,northwest,13.1,No
2024/03/06,09:50,0.141,0.126,0.199,0.188,0.201,0.113,0.074,north-northwest,10.1,No
2024/03/06,10:00,0.141,0.126,0.200,0.188,0.201,0.113,0.075,north-northwest,11.4,No
2024/03/06,10:10,0.141,0.125,0.199,0.189,0.201,0.113,0.076,north-northwest,11.7,No
2024/03/06,10:20,0.141,0.126,0.200,0.188,0.200,0.113,0.074,northwest,11.2,No
2024/03/06,10:30,0.140,0.127,0.200,0.189,0.202,0.113,0.075,northwest,10.8,No
2024/03/06,10:40,0.142,0.127,0.200,0.189,0.201,0.112,0.074,north-northwest,10.1,Yes
2024/03/06,10:50,0.142,0.125,0.201,0.190,0.202,0.113,0.074,north-northwest,9.8,Yes
2024/03/06,11:00,0.143,0.128,0.202,0.190,0.201,0.114,0.075,northwest,9.5,Yes
2024/03/06,11:10,0.143,0.127,0.203,0.191,0.202,0.115,0.076,north-northwest,10.0,Yes
2024/03/06,11:20,0.143,0.127,0.202,0.190,0.202,0.114,0.076,north-northwest,11.7,Yes
2024/03/06,11:30,0.143,0.128,0.203,0.191,0.203,0.113,0.076,northwest,10.7,Yes
2024/03/06,11:40,0.142,0.126,0.202,0.190,0.202,0.114,0.076,north-northwest,10.6,Yes
2024/03/06,11:50,0.142,0.127,0.200,0.190,0.202,0.114,0.075,northwest,11.2,Yes
2024/03/06,12:00,0.143,0.128,0.200,0.191,0.203,0.114,0.075,northwest,9.7,Yes
2024/03/06,12:10,0.143,0.126,0.202,0.190,0.204,0.113,0.075,north-northwest,10.0,Yes
2024/03/06,12:20,0.142,0.126,0.202,0.191,0.203,0.114,0.075,northwest,9.2,Yes
2024/03/06,12:30,0.144,0.128,0.202,0.191,0.203,0.114,0.075,north-northwest,11.1,Yes
2024/03/06,12:40,0.143,0.128,0.204,0.191,0.204,0.114,0.076,north-northwest,10.1,Yes
2024/03/06,12:50,0.144,0.129,0.203,0.194,0.204,0.115,0.076,north-northwest,10.1,Yes
2024/03/06,13:00,0.145,0.127,0.203,0.193,0.205,0.116,0.077,north-northwest,9.7,Yes
2024/03/06,13:10,0.144,0.129,0.204,0.193,0.205,0.116,0.077,north-northwest,10.4,Yes
2024/03/06,13:20,0.146,0.130,0.206,0.193,0.208,0.116,0.078,northwest,10.7,Yes
2024/03/06,13:30,0.147,0.132,0.207,0.196,0.207,0.119,0.081,northwest,7.9,Yes
2024/03/06,13:40,0.149,0.132,0.208,0.197,0.208,0.120,0.082,north-northwest,10.7,Yes
2024/03/06,13:50,0.150,0.133,0.208,0.196,0.208,0.120,0.081,north-northwest,9.5,Yes
2024/03/06,14:00,0.149,0.133,0.208,0.195,0.208,0.119,0.081,north-northwest,11.4,Yes
2024/03/06,14:10,0.148,0.132,0.207,0.197,0.208,0.118,0.081,north-northwest,10.0,Yes
2024/03/06,14:20,0.146,0.131,0.205,0.194,0.208,0.119,0.079,north-northwest,9.7,Yes
2024/03/06,14:30,0.146,0.130,0.204,0.193,0.205,0.117,0.079,northwest,10.6,Yes
2024/03/06,14:40,0.147,0.130,0.206,0.193,0.205,0.117,0.078,northwest,9.8,Yes
2024/03/06,14:50,0.145,0.130,0.203,0.193,0.204,0.115,0.077,northwest,9.5,Yes
2024/03/06,15:00,0.145,0.128,0.205,0.193,0.204,0.116,0.077,northwest,9.8,Yes
2024/03/06,15:10,0.143,0.129,0.204,0.193,0.204,0.116,0.076,north-northwest,10.0,Yes
2024/03/06,15:20,0.145,0.129,0.203,0.191,0.203,0.115,0.077,north-northwest,9.8,Yes
2024/03/06,15:30,0.144,0.128,0.202,0.193,0.203,0.115,0.076,north-northwest,10.7,Yes
2024/03/06,15:40,0.144,0.128,0.204,0.192,0.205,0.116,0.076,northwest,9.3,Yes
2024/03/06,15:50,0.145,0.130,0.204,0.193,0.203,0.116,0.077,north-northwest,8.5,Yes
2024/03/06,16:00,0.146,0.131,0.206,0.193,0.205,0.116,0.078,northwest,9.5,Yes
2024/03/06,16:10,0.148,0.131,0.206,0.193,0.207,0.118,0.079,northwest,8.5,Yes
2024/03/06,16:20,0.148,0.132,0.207,0.196,0.207,0.119,0.080,northwest,8.4,Yes
2024/03/06,16:30,0.147,0.130,0.206,0.195,0.206,0.118,0.080,north-northwest,9.5,Yes
2024/03/06,16:40,0.146,0.130,0.205,0.194,0.207,0.117,0.079,north-northwest,9.0,No
2024/03/06,16:50,0.145,0.129,0.205,0.194,0.205,0.116,0.078,north-northwest,10.4,No
2024/03/06,17:00,0.145,0.129,0.204,0.193,0.204,0.116,0.077,north-northwest,9.3,No
2024/03/06,17:10,0.144,0.128,0.203,0.191,0.203,0.115,0.077,northwest,8.9,No
2024/03/06,17:20,0.144,0.127,0.201,0.192,0.203,0.115,0.076,north-northwest,9.0,No
2024/03/06,17:30,0.144,0.128,0.203,0.192,0.203,0.114,0.076,north-northwest,8.8,No
2024/03/06,17:40,0.143,0.127,0.201,0.190,0.202,0.114,0.075,north-northwest,7.7,No
2024/03/06,17:50,0.143,0.126,0.201,0.191,0.203,0.114,0.075,north-northwest,6.7,No
2024/03/06,18:00,0.143,0.127,0.201,0.192,0.201,0.114,0.075,north-northwest,8.9,Yes
2024/03/06,18:10,0.142,0.126,0.202,0.190,0.202,0.114,0.075,north-northwest,9.3,Yes
2024/03/06,18:20,0.144,0.127,0.203,0.190,0.202,0.113,0.075,north-northwest,9.0,Yes
2024/03/06,18:30,0.143,0.127,0.202,0.190,0.201,0.114,0.074,north-northwest,8.8,Yes
2024/03/06,18:40,0.143,0.127,0.201,0.191,0.203,0.114,0.074,north-northwest,8.2,No
2024/03/06,18:50,0.143,0.126,0.201,0.191,0.202,0.114,0.075,north-northwest,7.5,No
2024/03/06,19:00,0.142,0.126,0.202,0.191,0.202,0.113,0.074,north-northwest,7.0,No
2024/03/06,19:10,0.143,0.126,0.201,0.191,0.202,0.114,0.075,north-northwest,5.9,No
2024/03/06,19:20,0.144,0.126,0.201,0.191,0.201,0.113,0.074,north-northwest,7.9,No
2024/03/06,19:30,0.142,0.126,0.201,0.191,0.202,0.113,0.074,north-northwest,8.1,No
2024/03/06,19:40,0.143,0.126,0.201,0.190,0.200,0.114,0.074,northwest,7.7,No
2024/03/06,19:50,0.142,0.126,0.201,0.189,0.202,0.114,0.075,north-northwest,7.3,No
2024/03/06,20:00,0.142,0.126,0.201,0.190,0.201,0.113,0.074,north-northwest,9.0,No
2024/03/06,20:10,0.142,0.126,0.201,0.189,0.202,0.113,0.074,north-northwest,8.1,No
2024/03/06,20:20,0.142,0.126,0.202,0.191,0.202,0.113,0.075,north-northwest,7.9,No
2024/03/06,20:30,0.143,0.126,0.201,0.191,0.202,0.113,0.075,north-northwest,8.8,No
2024/03/06,20:40,0.143,0.126,0.202,0.191,0.202,0.113,0.074,north-northwest,7.6,No
2024/03/06,20:50,0.142,0.127,0.201,0.189,0.202,0.112,0.074,north-northwest,7.9,No
2024/03/06,21:00,0.144,0.126,0.201,0.191,0.202,0.114,0.075,north-northwest,6.1,No
2024/03/06,21:10,0.143,0.127,0.202,0.192,0.201,0.115,0.075,north-northwest,6.4,No
2024/03/06,21:20,0.143,0.126,0.202,0.192,0.203,0.114,0.074,north-northwest,6.2,No
2024/03/06,21:30,0.143,0.126,0.201,0.191,0.202,0.114,0.075,north-northwest,7.4,No
2024/03/06,21:40,0.142,0.127,0.201,0.191,0.203,0.113,0.075,north-northwest,8.6,No
2024/03/06,21:50,0.143,0.126,0.202,0.192,0.202,0.114,0.075,north-northwest,7.6,No
2024/03/06,22:00,0.142,0.126,0.202,0.191,0.204,0.113,0.074,north-northwest,8.1,No
2024/03/06,22:10,0.143,0.126,0.202,0.192,0.203,0.114,0.075,north-northwest,6.3,No
2024/03/06,22:20,0.143,0.126,0.202,0.191,0.202,0.113,0.075,north-northwest,7.7,No
2024/03/06,22:30,0.142,0.127,0.202,0.190,0.203,0.115,0.074,northwest,7.6,No
2024/03/06,22:40,0.142,0.127,0.202,0.190,0.202,0.114,0.075,north-northwest,6.5,No
2024/03/06,22:50,0.143,0.127,0.203,0.192,0.203,0.114,0.075,north-northwest,5.6,No
2024/03/06,23:00,0.143,0.126,0.202,0.192,0.204,0.114,0.075,north-northwest,7.0,No
2024/03/06,23:10,0.142,0.127,0.202,0.192,0.203,0.114,0.075,north-northwest,6.5,No
2024/03/06,23:20,0.142,0.127,0.202,0.192,0.203,0.113,0.074,north-northwest,5.8,No
2024/03/06,23:30,0.143,0.127,0.203,0.191,0.203,0.114,0.074,northwest,7.3,No
2024/03/06,23:40,0.143,0.126,0.202,0.192,0.204,0.113,0.075,northwest,7.7,No
2024/03/06,23:50,0.143,0.127,0.202,0.192,0.203,0.114,0.075,northwest,7.6,No
